QPF
0.02 0.01 0.00 0.00 0.00 0.00 0.00 0.00 0.00 0.00 0.00 0.00 0.00 0.00 0.00 0.00 0.00 0.00 0.00 0.00 0.00 0.00 0.00 0.01 0.01 0.02 0.01 0.02 0.03 0.04 0.04 0.04 0.05 0.04 0.04 0.05 0.05 0.07 0.07 0.06 0.05 0.02 0.02
0.01 0.00 0.00 0.00 0.00 0.00 0.00 0.00 0.00 0.00 0.00 0.00 0.00 0.00 0.00 0.00 0.00 0.00 0.01 0.00 0.00 0.01 0.01 0.02 0.02 0.02 0.02 0.02 0.02 0.04 0.04 0.06 0.07 0.07 0.05 0.05 0.06 0.09 0.10 0.07 0.04 0.02 0.03
0.01 0.00 0.00 0.00 0.00 0.00 0.00 0.00 0.00 0.00 0.00 0.00 0.00 0.00 0.00 0.00 0.00 0.01 0.00 0.00 0.00 0.00 0.01 0.01 0.02 0.01 0.02 0.02 0.02 0.04 0.04 0.06 0.08 0.06 0.03 0.03 0.04 0.08 0.09 0.08 0.08 0.04 0.04
0.00 0.00 0.00 0.00 0.00 0.00 0.00 0.00 0.00 0.00 0.00 0.00 0.00 0.00 0.00 0.00 0.00 0.00 0.00 0.00 0.01 0.00 0.01 0.01 0.02 0.01 0.01 0.02 0.03 0.04 0.05 0.06 0.06 0.04 0.02 0.01 0.02 0.08 0.08 0.07 0.06 0.03 0.04
0.00 0.00 0.00 0.00 0.00 0.00 0.00 0.00 0.00 0.00 0.00 0.00 0.00 0.00 0.01 0.00 0.01 0.01 0.00 0.01 0.01 0.01 0.01 0.01 0.02 0.02 0.01 0.01 0.02 0.04 0.06 0.07 0.05 0.05 0.03 0.01 0.01 0.05 0.05 0.06 0.06 0.03 0.03
0.00 0.00 0.00 0.00 0.00 0.00 0.00 0.00 0.00 0.00 0.00 0.00 0.00 0.01 0.01 0.00 0.00 0.01 0.01 0.01 0.01 0.01 0.01 0.01 0.02 0.02 0.01 0.01 0.02 0.04 0.06 0.08 0.07 0.05 0.03 0.01 0.01 0.03 0.04 0.05 0.04 0.03 0.02
0.01 0.00 0.00 0.00 0.00 0.00 0.00 0.00 0.00 0.00 0.00 0.00 0.00 0.01 0.01 0.01 0.01 0.01 0.01 0.01 0.01 0.01 0.01 0.01 0.01 0.01 0.01 0.01 0.02 0.03 0.06 0.09 0.08 0.04 0.02 0.01 0.01 0.02 0.02 0.03 0.04 0.03 0.03
0.02 0.00 0.00 0.00 0.00 0.00 0.00 0.00 0.00 0.00 0.00 0.00 0.00 0.00 0.01 0.01 0.01 0.00 0.01 0.01 0.00 0.01 0.01 0.00 0.01 0.01 0.01 0.01 0.01 0.02 0.06 0.10 0.09 0.04 0.02 0.01 0.01 0.02 0.02 0.02 0.02 0.02 0.02
0.09 0.02 0.01 0.00 0.00 0.00 0.00 0.00 0.00 0.00 0.00 0.00 0.00 0.00 0.01 0.01 0.00 0.00 0.01 0.00 0.00 0.01 0.01 0.00 0.01 0.01 0.01 0.01 0.02 0.03 0.07 0.11 0.08 0.05 0.02 0.01 0.01 0.01 0.01 0.01 0.02 0.02 0.01
0.09 0.02 0.02 0.01 0.00 0.00 0.00 0.00 0.00 0.00 0.01 0.01 0.00 0.00 0.00 0.01 0.01 0.01 0.01 0.00 0.00 0.00 0.01 0.01 0.01 0.01 0.01 0.02 0.03 0.05 0.09 0.10 0.09 0.10 0.04 0.01 0.01 0.01 0.01 0.01 0.01 0.02 0.01
0.12 0.05 0.03 0.03 0.01 0.00 0.00 0.00 0.01 0.01 0.00 0.00 0.00 0.01 0.01 0.01 0.01 0.01 0.00 0.00 0.00 0.00 0.00 0.00 0.00 0.01 0.01 0.02 0.04 0.06 0.11 0.15 0.18 0.12 0.05 0.02 0.02 0.01 0.00 0.01 0.01 0.01 0.01
0.20 0.10 0.06 0.06 0.04 0.02 0.01 0.00 0.00 0.00 0.00 0.00 0.00 0.00 0.01 0.01 0.01 0.01 0.01 0.00 0.01 0.01 0.01 0.01 0.01 0.01 0.02 0.03 0.05 0.10 0.18 0.20 0.22 0.11 0.04 0.03 0.02 0.01 0.00 0.01 0.01 0.02 0.01
0.26 0.15 0.08 0.06 0.05 0.04 0.02 0.01 0.01 0.01 0.01 0.00 0.01 0.01 0.01 0.02 0.02 0.01 0.01 0.00 0.00 0.00 0.00 0.01 0.01 0.02 0.04 0.07 0.09 0.13 0.20 0.20 0.18 0.11 0.05 0.03 0.01 0.01 0.01 0.01 0.01 0.02 0.01
0.27 0.19 0.19 0.12 0.07 0.06 0.04 0.02 0.01 0.01 0.01 0.01 0.01 0.01 0.02 0.02 0.02 0.01 0.01 0.00 0.01 0.00 0.01 0.01 0.02 0.05 0.07 0.09 0.09 0.11 0.14 0.15 0.14 0.11 0.05 0.03 0.02 0.01 0.01 0.01 0.02 0.02 0.02
0.27 0.16 0.18 0.17 0.15 0.11 0.08 0.06 0.04 0.02 0.01 0.01 0.01 0.02 0.02 0.01 0.02 0.02 0.01 0.02 0.02 0.02 0.01 0.02 0.03 0.04 0.05 0.07 0.08 0.09 0.12 0.16 0.13 0.08 0.05 0.04 0.03 0.03 0.02 0.01 0.01 0.02 0.02
0.29 0.25 0.23 0.24 0.14 0.11 0.12 0.10 0.06 0.04 0.03 0.02 0.02 0.02 0.02 0.01 0.01 0.01 0.02 0.02 0.01 0.01 0.01 0.01 0.02 0.02 0.03 0.05 0.07 0.10 0.14 0.16 0.12 0.09 0.06 0.05 0.04 0.04 0.03 0.02 0.01 0.01 0.02
0.26 0.34 0.36 0.33 0.20 0.15 0.16 0.16 0.08 0.06 0.05 0.04 0.03 0.02 0.02 0.01 0.01 0.01 0.01 0.01 0.01 0.01 0.01 0.01 0.02 0.01 0.02 0.05 0.07 0.08 0.11 0.13 0.11 0.10 0.05 0.04 0.04 0.04 0.05 0.05 0.04 0.04 0.05
0.19 0.27 0.34 0.32 0.21 0.17 0.16 0.17 0.10 0.08 0.06 0.06 0.06 0.03 0.02 0.01 0.01 0.01 0.01 0.01 0.01 0.01 0.00 0.01 0.01 0.02 0.02 0.04 0.04 0.07 0.10 0.13 0.12 0.09 0.06 0.05 0.04 0.03 0.05 0.07 0.07 0.07 0.08
0.19 0.22 0.27 0.24 0.20 0.19 0.17 0.19 0.20 0.14 0.10 0.09 0.10 0.07 0.05 0.03 0.03 0.02 0.01 0.01 0.01 0.01 0.01 0.01 0.01 0.01 0.01 0.01 0.03 0.04 0.07 0.10 0.11 0.10 0.09 0.08 0.08 0.04 0.03 0.04 0.07 0.05 0.07
0.15 0.19 0.22 0.21 0.20 0.18 0.17 0.19 0.28 0.22 0.16 0.13 0.12 0.08 0.05 0.03 0.03 0.03 0.02 0.02 0.02 0.02 0.01 0.00 0.00 0.01 0.01 0.01 0.02 0.04 0.05 0.06 0.08 0.09 0.08 0.09 0.06 0.04 0.04 0.04 0.03 0.04 0.05
0.11 0.15 0.18 0.22 0.23 0.20 0.17 0.16 0.22 0.20 0.17 0.14 0.11 0.06 0.04 0.03 0.02 0.03 0.03 0.03 0.02 0.01 0.00 0.00 0.00 0.00 0.00 0.00 0.01 0.02 0.03 0.04 0.06 0.06 0.05 0.07 0.08 0.06 0.08 0.07 0.03 0.01 0.02
0.12 0.16 0.18 0.21 0.22 0.18 0.17 0.17 0.17 0.17 0.17 0.12 0.09 0.07 0.05 0.03 0.02 0.02 0.02 0.02 0.02 0.02 0.01 0.01 0.00 0.00 0.00 0.00 0.00 0.01 0.01 0.03 0.04 0.05 0.05 0.05 0.07 0.05 0.06 0.06 0.04 0.01 0.01
0.12 0.14 0.13 0.12 0.15 0.15 0.19 0.22 0.21 0.20 0.20 0.17 0.12 0.10 0.06 0.03 0.02 0.03 0.03 0.02 0.03 0.02 0.01 0.01 0.00 0.00 0.00 0.00 0.01 0.01 0.01 0.01 0.01 0.03 0.05 0.05 0.04 0.03 0.03 0.03 0.02 0.02 0.01
0.10 0.12 0.10 0.09 0.10 0.12 0.17 0.16 0.13 0.11 0.10 0.09 0.09 0.08 0.07 0.05 0.04 0.04 0.03 0.03 0.02 0.01 0.01 0.00 0.00 0.00 0.00 0.00 0.01 0.01 0.01 0.00 0.00 0.01 0.03 0.03 0.03 0.02 0.01 0.01 0.01 0.01 0.01
0.06 0.08 0.08 0.08 0.09 0.11 0.12 0.11 0.11 0.11 0.11 0.12 0.13 0.13 0.10 0.10 0.07 0.04 0.03 0.03 0.02 0.01 0.01 0.00 0.00 0.00 0.00 0.00 0.00 0.00 0.00 0.00 0.00 0.00 0.01 0.01 0.01 0.01 0.00 0.00 0.00 0.00 0.01
0.04 0.06 0.09 0.09 0.09 0.10 0.11 0.10 0.10 0.11 0.11 0.13 0.13 0.11 0.08 0.06 0.05 0.05 0.04 0.03 0.02 0.01 0.01 0.01 0.00 0.00 0.00 0.00 0.00 0.00 0.00 0.00 0.00 0.00 0.00 0.00 0.00 0.00 0.00 0.00 0.00 0.00 0.00
MSLP
1011.28 1011.04 1010.98 1011.12 1011.41 1011.77 1012.13 1012.43 1012.62 1012.71 1012.74 1012.76 1012.82 1012.94 1013.13 1013.38 1013.65 1013.90 1014.10 1014.22 1014.28 1014.30 1014.28 1014.27 1014.28 1014.33 1014.42 1014.54 1014.69 1014.85 1015.01 1015.17 1015.33 1015.47 1015.61 1015.73 1015.85 1015.96 1016.08 1016.21 1016.36 1016.52 1016.71
1010.98 1010.87 1010.94 1011.17 1011.52 1011.91 1012.26 1012.53 1012.69 1012.76 1012.79 1012.82 1012.91 1013.07 1013.31 1013.60 1013.89 1014.14 1014.33 1014.44 1014.49 1014.49 1014.47 1014.47 1014.49 1014.54 1014.63 1014.74 1014.87 1015.01 1015.15 1015.29 1015.44 1015.58 1015.73 1015.88 1016.02 1016.17 1016.32 1016.48 1016.65 1016.84 1017.04
1010.66 1010.67 1010.85 1011.17 1011.59 1012.02 1012.39 1012.65 1012.81 1012.88 1012.91 1012.96 1013.07 1013.26 1013.52 1013.81 1014.09 1014.33 1014.50 1014.59 1014.63 1014.63 1014.62 1014.63 1014.67 1014.74 1014.83 1014.94 1015.06 1015.18 1015.31 1015.44 1015.59 1015.74 1015.91 1016.08 1016.25 1016.42 1016.59 1016.77 1016.95 1017.16 1017.37
1010.37 1010.49 1010.77 1011.19 1011.67 1012.15 1012.55 1012.83 1013.00 1013.08 1013.12 1013.18 1013.31 1013.50 1013.74 1014.01 1014.27 1014.47 1014.61 1014.69 1014.72 1014.74 1014.75 1014.79 1014.86 1014.96 1015.07 1015.18 1015.29 1015.40 1015.53 1015.66 1015.82 1015.99 1016.17 1016.36 1016.54 1016.71 1016.89 1017.06 1017.25 1017.46 1017.68
1010.18 1010.39 1010.75 1011.25 1011.80 1012.33 1012.76 1013.07 1013.25 1013.34 1013.40 1013.47 1013.59 1013.76 1013.98 1014.21 1014.42 1014.59 1014.70 1014.76 1014.81 1014.85 1014.91 1015.00 1015.11 1015.24 1015.37 1015.49 1015.60 1015.71 1015.83 1015.96 1016.13 1016.31 1016.51 1016.70 1016.88 1017.05 1017.21 1017.36 1017.53 1017.73 1017.95
1010.14 1010.40 1010.84 1011.39 1011.99 1012.55 1013.01 1013.33 1013.53 1013.64 1013.70 1013.78 1013.89 1014.05 1014.23 1014.42 1014.58 1014.71 1014.79 1014.86 1014.92 1015.00 1015.12 1015.26 1015.43 1015.59 1015.74 1015.87 1015.98 1016.08 1016.20 1016.33 1016.50 1016.69 1016.89 1017.08 1017.26 1017.40 1017.52 1017.65 1017.79 1017.96 1018.18
1010.23 1010.54 1011.02 1011.60 1012.22 1012.78 1013.24 1013.57 1013.78 1013.90 1013.98 1014.06 1014.18 1014.32 1014.47 1014.63 1014.75 1014.85 1014.92 1014.99 1015.08 1015.21 1015.38 1015.58 1015.80 1016.00 1016.17 1016.30 1016.40 1016.49 1016.59 1016.72 1016.88 1017.07 1017.27 1017.46 1017.62 1017.73 1017.82 1017.90 1018.00 1018.15 1018.35
1010.42 1010.76 1011.25 1011.84 1012.44 1012.98 1013.42 1013.74 1013.94 1014.07 1014.17 1014.28 1014.41 1014.56 1014.71 1014.84 1014.95 1015.03 1015.10 1015.18 1015.29 1015.46 1015.67 1015.92 1016.17 1016.40 1016.58 1016.70 1016.79 1016.87 1016.95 1017.07 1017.22 1017.41 1017.61 1017.79 1017.93 1018.02 1018.08 1018.12 1018.19 1018.30 1018.48
1010.64 1010.99 1011.48 1012.04 1012.60 1013.10 1013.50 1013.78 1013.98 1014.12 1014.26 1014.41 1014.58 1014.76 1014.93 1015.07 1015.18 1015.25 1015.31 1015.39 1015.52 1015.70 1015.94 1016.21 1016.48 1016.72 1016.90 1017.03 1017.10 1017.16 1017.23 1017.33 1017.48 1017.66 1017.86 1018.04 1018.17 1018.26 1018.30 1018.32 1018.35 1018.44 1018.60
1010.81 1011.17 1011.64 1012.16 1012.66 1013.10 1013.44 1013.69 1013.88 1014.05 1014.23 1014.44 1014.67 1014.91 1015.13 1015.30 1015.42 1015.49 1015.54 1015.62 1015.73 1015.91 1016.15 1016.42 1016.69 1016.93 1017.11 1017.22 1017.29 1017.34 1017.40 1017.50 1017.64 1017.83 1018.03 1018.21 1018.35 1018.44 1018.48 1018.50 1018.53 1018.60 1018.74
1010.86 1011.24 1011.70 1012.17 1012.61 1012.98 1013.26 1013.48 1013.67 1013.87 1014.11 1014.40 1014.71 1015.03 1015.31 1015.52 1015.66 1015.74 1015.78 1015.82 1015.91 1016.06 1016.27 1016.52 1016.78 1017.01 1017.18 1017.30 1017.37 1017.42 1017.49 1017.58 1017.73 1017.92 1018.13 1018.32 1018.48 1018.59 1018.66 1018.69 1018.73 1018.80 1018.93
1010.79 1011.19 1011.63 1012.07 1012.45 1012.75 1012.99 1013.18 1013.39 1013.63 1013.93 1014.30 1014.71 1015.11 1015.46 1015.72 1015.88 1015.96 1015.98 1015.99 1016.03 1016.14 1016.30 1016.52 1016.76 1016.98 1017.17 1017.30 1017.39 1017.46 1017.54 1017.65 1017.80 1017.99 1018.20 1018.41 1018.59 1018.73 1018.83 1018.90 1018.96 1019.04 1019.17
1010.59 1011.02 1011.46 1011.87 1012.20 1012.46 1012.67 1012.86 1013.08 1013.36 1013.74 1014.18 1014.67 1015.15 1015.56 1015.86 1016.05 1016.13 1016.13 1016.11 1016.10 1016.16 1016.28 1016.47 1016.69 1016.91 1017.12 1017.29 1017.42 1017.53 1017.63 1017.75 1017.91 1018.09 1018.29 1018.50 1018.69 1018.86 1018.99 1019.10 1019.20 1019.31 1019.45
1010.30 1010.77 1011.21 1011.60 1011.91 1012.15 1012.35 1012.55 1012.79 1013.13 1013.55 1014.06 1014.61 1015.14 1015.60 1015.94 1016.14 1016.22 1016.22 1016.17 1016.14 1016.15 1016.25 1016.41 1016.63 1016.87 1017.12 1017.33 1017.51 1017.67 1017.81 1017.94 1018.08 1018.25 1018.42 1018.61 1018.80 1018.97 1019.13 1019.28 1019.42 1019.57 1019.72
1009.97 1010.46 1010.92 1011.30 1011.61 1011.86 1012.07 1012.29 1012.57 1012.93 1013.40 1013.94 1014.52 1015.07 1015.55 1015.91 1016.13 1016.23 1016.22 1016.18 1016.14 1016.15 1016.23 1016.40 1016.64 1016.91 1017.20 1017.48 1017.72 1017.92 1018.08 1018.22 1018.35 1018.47 1018.60 1018.74 1018.89 1019.05 1019.22 1019.39 1019.57 1019.76 1019.94
1009.64 1010.15 1010.60 1011.00 1011.32 1011.59 1011.83 1012.09 1012.41 1012.80 1013.28 1013.83 1014.39 1014.94 1015.41 1015.77 1016.00 1016.12 1016.15 1016.14 1016.12 1016.16 1016.27 1016.46 1016.73 1017.05 1017.39 1017.72 1018.02 1018.26 1018.45 1018.58 1018.67 1018.73 1018.79 1018.85 1018.94 1019.06 1019.21 1019.40 1019.61 1019.83 1020.03
1009.34 1009.83 1010.28 1010.68 1011.03 1011.34 1011.64 1011.96 1012.31 1012.73 1013.20 1013.71 1014.24 1014.74 1015.17 1015.51 1015.76 1015.91 1015.99 1016.04 1016.09 1016.19 1016.35 1016.59 1016.90 1017.26 1017.65 1018.03 1018.36 1018.64 1018.84 1018.96 1019.00 1019.00 1018.96 1018.94 1018.94 1019.00 1019.11 1019.29 1019.51 1019.75 1019.99
1009.06 1009.52 1009.95 1010.36 1010.75 1011.12 1011.49 1011.87 1012.27 1012.70 1013.15 1013.62 1014.07 1014.49 1014.87 1015.18 1015.43 1015.62 1015.77 1015.90 1016.04 1016.22 1016.45 1016.74 1017.09 1017.49 1017.91 1018.32 1018.69 1018.98 1019.18 1019.28 1019.29 1019.22 1019.10 1018.98 1018.89 1018.87 1018.93 1019.08 1019.29 1019.55 1019.82
1008.82 1009.22 1009.63 1010.04 1010.47 1010.91 1011.37 1011.83 1012.29 1012.73 1013.15 1013.55 1013.91 1014.24 1014.54 1014.82 1015.06 1015.29 1015.52 1015.74 1015.98 1016.24 1016.54 1016.89 1017.27 1017.69 1018.12 1018.54 1018.92 1019.22 1019.43 1019.52 1019.49 1019.37 1019.19 1018.99 1018.82 1018.72 1018.71 1018.81 1019.01 1019.26 1019.54
1008.62 1008.95 1009.31 1009.73 1010.21 1010.73 1011.27 1011.82 1012.34 1012.81 1013.21 1013.54 1013.81 1014.05 1014.26 1014.48 1014.72 1014.98 1015.27 1015.58 1015.91 1016.26 1016.62 1016.99 1017.39 1017.81 1018.23 1018.65 1019.03 1019.34 1019.55 1019.64 1019.61 1019.47 1019.25 1018.99 1018.76 1018.59 1018.52 1018.56 1018.71 1018.95 1019.22
1008.47 1008.72 1009.05 1009.46 1009.98 1010.57 1011.21 1011.85 1012.44 1012.93 1013.32 1013.60 1013.79 1013.94 1014.07 1014.24 1014.46 1014.74 1015.08 1015.46 1015.86 1016.27 1016.66 1017.06 1017.45 1017.84 1018.24 1018.63 1019.00 1019.32 1019.55 1019.66 1019.66 1019.53 1019.30 1019.03 1018.75 1018.53 1018.40 1018.38 1018.48 1018.67 1018.92
1008.39 1008.58 1008.86 1009.26 1009.80 1010.46 1011.18 1011.90 1012.56 1013.10 1013.49 1013.74 1013.87 1013.94 1014.01 1014.12 1014.32 1014.61 1014.98 1015.41 1015.85 1016.29 1016.70 1017.09 1017.45 1017.80 1018.16 1018.53 1018.88 1019.21 1019.47 1019.63 1019.67 1019.58 1019.39 1019.12 1018.84 1018.58 1018.39 1018.31 1018.34 1018.47 1018.67
1008.44 1008.56 1008.78 1009.16 1009.71 1010.40 1011.18 1011.97 1012.69 1013.27 1013.68 1013.92 1014.02 1014.05 1014.07 1014.15 1014.32 1014.61 1014.99 1015.44 1015.90 1016.35 1016.75 1017.11 1017.43 1017.74 1018.05 1018.38 1018.72 1019.06 1019.35 1019.57 1019.68 1019.66 1019.52 1019.29 1019.01 1018.74 1018.51 1018.36 1018.31 1018.36 1018.49
1008.62 1008.68 1008.85 1009.18 1009.70 1010.39 1011.19 1012.01 1012.78 1013.40 1013.84 1014.09 1014.19 1014.21 1014.22 1014.28 1014.44 1014.72 1015.10 1015.55 1016.01 1016.44 1016.82 1017.14 1017.42 1017.67 1017.94 1018.24 1018.57 1018.92 1019.25 1019.53 1019.70 1019.76 1019.69 1019.51 1019.25 1018.96 1018.70 1018.49 1018.36 1018.33 1018.37
1008.92 1008.94 1009.04 1009.30 1009.77 1010.41 1011.18 1012.00 1012.78 1013.43 1013.90 1014.19 1014.32 1014.36 1014.38 1014.45 1014.61 1014.89 1015.27 1015.71 1016.15 1016.56 1016.91 1017.20 1017.43 1017.64 1017.87 1018.14 1018.46 1018.82 1019.18 1019.50 1019.74 1019.86 1019.84 1019.71 1019.48 1019.20 1018.91 1018.65 1018.45 1018.33 1018.29
1009.31 1009.28 1009.32 1009.50 1009.86 1010.42 1011.13 1011.91 1012.67 1013.33 1013.83 1014.16 1014.34 1014.43 1014.49 1014.59 1014.78 1015.06 1015.44 1015.86 1016.29 1016.68 1017.01 1017.26 1017.46 1017.65 1017.85 1018.10 1018.40 1018.76 1019.13 1019.47 1019.75 1019.91 1019.95 1019.86 1019.66 1019.39 1019.08 1018.79 1018.54 1018.35 1018.23
Thickness
5785 5786 5784 5783 5782 5781 5780 5779 5779 5778 5776 5776 5775 5774 5772 5771 5770 5768 5766 5765 5763 5761 5760 5759 5758 5757 5756 5755 5754 5752 5751 5750 5749 5748 5747 5746 5745 5743 5742 5741 5740 5738 5738
5791 5787 5785 5783 5782 5780 5779 5778 5777 5776 5775 5774 5773 5772 5771 5770 5768 5767 5765 5763 5762 5760 5759 5757 5756 5755 5754 5752 5751 5750 5749 5748 5748 5747 5746 5745 5743 5742 5741 5739 5738 5737 5737
5791 5787 5784 5782 5781 5779 5778 5777 5776 5775 5774 5773 5772 5771 5770 5768 5767 5765 5764 5762 5760 5758 5757 5755 5754 5753 5752 5750 5749 5748 5747 5746 5745 5745 5744 5743 5742 5741 5740 5738 5737 5736 5735
5790 5786 5783 5781 5780 5778 5777 5775 5774 5773 5772 5771 5770 5769 5768 5767 5765 5764 5763 5761 5759 5757 5755 5754 5752 5751 5750 5748 5747 5746 5745 5744 5743 5743 5742 5741 5740 5739 5738 5737 5736 5735 5734
5787 5783 5781 5779 5778 5776 5775 5774 5773 5772 5771 5770 5769 5768 5767 5766 5764 5763 5761 5759 5757 5755 5754 5752 5750 5749 5748 5746 5745 5744 5743 5742 5741 5740 5740 5739 5738 5737 5737 5736 5735 5734 5733
5784 5781 5779 5778 5776 5774 5773 5772 5771 5770 5769 5769 5768 5767 5766 5764 5763 5761 5760 5758 5756 5754 5752 5751 5748 5747 5746 5744 5743 5743 5742 5741 5740 5738 5738 5737 5736 5736 5735 5734 5733 5732 5731
5782 5780 5778 5776 5774 5773 5771 5770 5770 5768 5767 5767 5766 5765 5764 5763 5761 5760 5758 5756 5754 5752 5750 5749 5747 5745 5744 5743 5742 5741 5741 5740 5738 5737 5736 5735 5734 5734 5733 5733 5732 5731 5730
5782 5778 5776 5774 5772 5771 5770 5768 5767 5766 5766 5765 5765 5764 5762 5761 5760 5758 5756 5755 5753 5751 5749 5747 5746 5744 5742 5741 5740 5740 5739 5738 5736 5735 5734 5733 5733 5732 5732 5731 5730 5729 5728
5780 5777 5774 5772 5770 5769 5768 5767 5766 5765 5764 5763 5763 5762 5760 5759 5758 5756 5755 5753 5751 5749 5747 5746 5744 5743 5741 5740 5739 5738 5737 5736 5734 5733 5732 5731 5731 5730 5730 5729 5728 5727 5727
5776 5774 5771 5769 5768 5767 5767 5766 5764 5763 5762 5761 5760 5760 5759 5757 5756 5755 5753 5751 5750 5748 5746 5744 5743 5741 5740 5739 5737 5736 5736 5734 5733 5732 5730 5729 5729 5729 5728 5727 5727 5726 5725
5771 5769 5769 5767 5765 5765 5764 5764 5762 5761 5760 5760 5759 5758 5757 5756 5754 5753 5751 5750 5748 5746 5744 5743 5742 5740 5739 5737 5736 5734 5734 5733 5731 5730 5729 5728 5727 5727 5726 5726 5725 5724 5723
5767 5766 5766 5764 5763 5762 5762 5761 5760 5760 5759 5758 5757 5756 5755 5754 5753 5751 5749 5748 5746 5744 5743 5742 5741 5739 5738 5736 5734 5733 5732 5731 5730 5729 5728 5726 5725 5725 5724 5724 5723 5722 5721
5768 5765 5764 5763 5762 5761 5760 5758 5758 5757 5757 5756 5755 5754 5753 5752 5751 5749 5748 5746 5745 5743 5742 5741 5740 5739 5737 5735 5733 5732 5731 5730 5729 5728 5727 5725 5723 5722 5722 5721 5721 5720 5719
5766 5765 5763 5762 5761 5760 5758 5756 5755 5755 5755 5754 5754 5753 5751 5750 5749 5748 5746 5745 5744 5743 5741 5739 5738 5737 5736 5734 5733 5731 5730 5729 5728 5727 5725 5724 5722 5721 5720 5719 5719 5718 5717
5766 5764 5762 5762 5760 5758 5756 5754 5753 5753 5754 5753 5752 5752 5751 5750 5748 5747 5746 5744 5743 5742 5740 5739 5737 5736 5735 5734 5732 5730 5729 5727 5726 5725 5724 5722 5720 5719 5719 5718 5717 5716 5716
5766 5763 5762 5759 5758 5757 5755 5753 5752 5752 5753 5753 5752 5751 5750 5750 5749 5747 5745 5744 5743 5742 5740 5739 5737 5736 5734 5733 5732 5730 5728 5727 5725 5724 5723 5721 5719 5718 5718 5717 5716 5715 5714
5767 5763 5760 5757 5756 5754 5753 5751 5751 5751 5752 5752 5751 5750 5750 5749 5748 5747 5745 5743 5743 5742 5740 5739 5737 5735 5733 5732 5730 5729 5727 5726 5724 5723 5722 5721 5719 5718 5717 5716 5715 5714 5713
5767 5762 5759 5757 5754 5753 5750 5749 5749 5749 5750 5750 5750 5749 5749 5748 5748 5746 5744 5743 5743 5742 5740 5738 5736 5733 5732 5730 5728 5727 5726 5725 5723 5722 5721 5720 5719 5718 5717 5716 5715 5714 5713
5766 5762 5757 5755 5752 5751 5749 5747 5746 5746 5747 5748 5748 5748 5748 5748 5747 5746 5744 5743 5742 5741 5740 5738 5735 5733 5730 5728 5728 5727 5726 5725 5723 5721 5720 5719 5719 5718 5717 5716 5715 5714 5713
5765 5761 5757 5754 5750 5748 5745 5743 5742 5742 5743 5745 5746 5746 5746 5746 5746 5745 5743 5742 5741 5739 5737 5736 5734 5732 5730 5728 5728 5726 5725 5725 5723 5722 5721 5721 5720 5719 5718 5717 5716 5714 5713
5762 5758 5754 5750 5747 5745 5743 5741 5738 5737 5739 5740 5742 5743 5744 5744 5745 5744 5742 5740 5740 5738 5736 5735 5733 5731 5729 5728 5724 5720 5721 5723 5723 5723 5722 5722 5721 5720 5719 5718 5716 5715 5714
5760 5756 5752 5749 5747 5745 5744 5742 5740 5738 5736 5738 5739 5741 5742 5742 5742 5742 5741 5739 5738 5736 5735 5734 5733 5729 5728 5727 5722 5715 5711 5714 5720 5724 5723 5722 5722 5721 5720 5719 5717 5716 5715
5760 5757 5754 5750 5747 5746 5744 5740 5737 5734 5733 5732 5734 5736 5739 5740 5740 5740 5739 5738 5737 5736 5733 5733 5732 5729 5725 5725 5725 5718 5709 5706 5712 5719 5722 5723 5723 5722 5722 5721 5719 5718 5716
5761 5758 5755 5752 5749 5746 5743 5740 5736 5732 5729 5731 5734 5735 5736 5737 5737 5738 5737 5737 5736 5735 5733 5733 5732 5730 5726 5722 5723 5724 5721 5719 5712 5711 5718 5722 5723 5723 5723 5722 5721 5720 5718
5762 5758 5755 5751 5748 5746 5743 5741 5736 5733 5732 5732 5732 5731 5732 5733 5735 5735 5735 5735 5734 5733 5732 5732 5731 5729 5727 5724 5722 5722 5721 5720 5718 5713 5710 5715 5719 5723 5724 5723 5723 5722 5720
5760 5756 5753 5749 5746 5745 5742 5740 5737 5733 5731 5729 5728 5727 5728 5729 5731 5733 5733 5732 5732 5731 5730 5730 5729 5728 5726 5725 5723 5722 5720 5718 5716 5714 5711 5711 5713 5719 5723 5724 5723 5723 5722